Location: Prague
(50.0830°N, 14.4670°E)
Time: 12:40:15
(UTC+01:00)

XW-2F - Pass Details

Date: 05 December 2021
Orbit: 494 x 515 km, 97.5° (Epoch: 27 January)

Event Time Altitude Azimuth Distance (km) Brightness Sun altitude
Rises 16:54:10 0° 153° (SSE) 2,604 ? -8.2°
Reaches altitude 10° 16:56:16 10° 149° (SSE) 1,727 ? -8.5°
Maximum altitude 16:59:54 53° 72° (ENE) 636 ? -9.0°
Drops below altitude 10° 17:03:35 10° 355° (N) 1,754 ? -9.6°
Sets 17:05:44 0° 351° (N) 2,649 ? -9.9°
